Precipitable_Water
0.52 0.54 0.58 0.60 0.62 0.62 0.62 0.62 0.62 0.62 0.62 0.61 0.61 0.60 0.60 0.60 0.58 0.57 0.55 0.53 0.52 0.52 0.53 0.52 0.51 0.48 0.47 0.45 0.45 0.45 0.44 0.32 0.25 0.21 0.20 0.21 0.21 0.24 0.24 0.25 0.30 0.30 0.34 0.30 0.24 0.21 0.17 0.21 0.20 0.23 0.20 0.21 0.24 0.23 0.29 0.29 0.27 0.22 0.13 0.12 0.09 0.10 0.10 0.13 0.12 0.13 0.18 0.17 0.19 0.19 0.21 0.19 0.18 0.19 0.44 0.72 0.63 0.60 0.67 0.68 0.73 0.81 0.82 0.85 0.92 0.97 1.03 1.11
0.50 0.51 0.54 0.58 0.61 0.62 0.63 0.63 0.63 0.63 0.63 0.63 0.62 0.62 0.61 0.59 0.57 0.56 0.55 0.53 0.52 0.52 0.52 0.52 0.49 0.47 0.46 0.45 0.45 0.45 0.38 0.29 0.22 0.26 0.22 0.30 0.29 0.26 0.26 0.25 0.33 0.33 0.34 0.24 0.23 0.20 0.17 0.18 0.20 0.21 0.19 0.18 0.28 0.22 0.29 0.24 0.27 0.16 0.14 0.12 0.09 0.11 0.12 0.15 0.15 0.17 0.16 0.18 0.20 0.20 0.22 0.20 0.19 0.19 0.25 0.31 0.47 0.53 0.51 0.58 0.65 0.65 0.75 0.86 0.91 0.96 0.99 1.03
0.49 0.49 0.51 0.55 0.59 0.61 0.62 0.63 0.64 0.64 0.64 0.64 0.63 0.63 0.62 0.59 0.58 0.57 0.56 0.54 0.52 0.51 0.51 0.50 0.49 0.47 0.45 0.44 0.44 0.44 0.34 0.25 0.30 0.26 0.31 0.44 0.36 0.29 0.28 0.28 0.36 0.39 0.31 0.26 0.25 0.23 0.18 0.20 0.20 0.20 0.20 0.18 0.23 0.21 0.25 0.22 0.24 0.20 0.15 0.11 0.11 0.14 0.15 0.16 0.16 0.17 0.18 0.20 0.20 0.20 0.21 0.20 0.20 0.19 0.21 0.26 0.33 0.43 0.38 0.40 0.51 0.53 0.57 0.67 0.78 0.90 0.94 0.98
0.48 0.48 0.48 0.51 0.55 0.59 0.61 0.63 0.63 0.64 0.65 0.65 0.64 0.64 0.63 0.61 0.60 0.59 0.59 0.56 0.53 0.51 0.50 0.50 0.50 0.47 0.45 0.42 0.44 0.41 0.31 0.27 0.23 0.31 0.42 0.48 0.44 0.34 0.29 0.31 0.37 0.38 0.33 0.29 0.29 0.24 0.21 0.23 0.21 0.20 0.20 0.18 0.20 0.22 0.20 0.21 0.19 0.20 0.16 0.12 0.13 0.15 0.14 0.16 0.18 0.18 0.19 0.20 0.21 0.20 0.21 0.19 0.20 0.19 0.19 0.24 0.23 0.26 0.35 0.40 0.35 0.43 0.54 0.63 0.74 0.83 0.90 0.92
0.46 0.46 0.47 0.48 0.51 0.54 0.59 0.62 0.63 0.63 0.65 0.65 0.65 0.64 0.63 0.62 0.61 0.61 0.60 0.59 0.54 0.50 0.50 0.50 0.49 0.48 0.43 0.43 0.42 0.40 0.26 0.19 0.28 0.43 0.43 0.54 0.53 0.41 0.34 0.33 0.37 0.37 0.37 0.29 0.26 0.23 0.20 0.20 0.21 0.20 0.20 0.16 0.20 0.20 0.20 0.21 0.21 0.18 0.16 0.17 0.16 0.17 0.14 0.17 0.18 0.19 0.19 0.20 0.19 0.20 0.19 0.19 0.20 0.19 0.18 0.19 0.16 0.16 0.23 0.33 0.44 0.51 0.61 0.61 0.68 0.80 0.90 0.92
0.44 0.45 0.46 0.46 0.47 0.50 0.53 0.57 0.60 0.62 0.64 0.65 0.65 0.64 0.63 0.62 0.61 0.61 0.60 0.61 0.58 0.53 0.50 0.49 0.48 0.45 0.44 0.43 0.42 0.38 0.24 0.13 0.39 0.45 0.58 0.60 0.56 0.45 0.41 0.40 0.38 0.38 0.34 0.29 0.23 0.20 0.17 0.18 0.19 0.16 0.17 0.18 0.17 0.15 0.18 0.21 0.22 0.14 0.16 0.17 0.17 0.17 0.15 0.17 0.18 0.19 0.19 0.18 0.17 0.18 0.20 0.20 0.19 0.18 0.19 0.18 0.18 0.22 0.33 0.35 0.47 0.58 0.66 0.73 0.76 0.79 0.84 0.89
0.42 0.43 0.44 0.46 0.46 0.46 0.49 0.52 0.56 0.60 0.63 0.63 0.63 0.64 0.63 0.62 0.61 0.61 0.60 0.61 0.61 0.57 0.52 0.48 0.47 0.46 0.43 0.43 0.44 0.29 0.19 0.23 0.36 0.45 0.59 0.63 0.60 0.47 0.44 0.44 0.42 0.35 0.31 0.26 0.21 0.16 0.16 0.18 0.18 0.17 0.17 0.16 0.19 0.17 0.19 0.19 0.21 0.17 0.14 0.17 0.17 0.18 0.16 0.17 0.18 0.19 0.18 0.17 0.16 0.18 0.20 0.19 0.19 0.17 0.20 0.23 0.36 0.42 0.45 0.48 0.51 0.63 0.74 0.79 0.73 0.79 0.81 0.84
0.42 0.42 0.43 0.44 0.45 0.45 0.45 0.48 0.52 0.56 0.59 0.60 0.62 0.62 0.62 0.61 0.61 0.60 0.60 0.60 0.61 0.58 0.56 0.51 0.48 0.45 0.44 0.37 0.25 0.18 0.19 0.20 0.34 0.49 0.57 0.55 0.56 0.47 0.43 0.39 0.37 0.34 0.28 0.23 0.19 0.15 0.18 0.18 0.16 0.20 0.17 0.14 0.16 0.16 0.18 0.17 0.18 0.16 0.15 0.16 0.17 0.17 0.17 0.17 0.18 0.18 0.17 0.17 0.17 0.17 0.16 0.17 0.18 0.18 0.20 0.25 0.40 0.47 0.48 0.53 0.59 0.65 0.70 0.76 0.76 0.79 0.84 0.87
0.42 0.41 0.42 0.42 0.43 0.44 0.45 0.45 0.47 0.51 0.55 0.58 0.60 0.61 0.61 0.61 0.60 0.59 0.60 0.61 0.61 0.60 0.57 0.55 0.49 0.47 0.47 0.36 0.25 0.13 0.11 0.35 0.46 0.54 0.54 0.52 0.51 0.45 0.37 0.30 0.34 0.31 0.27 0.24 0.20 0.18 0.20 0.19 0.22 0.22 0.16 0.17 0.19 0.16 0.17 0.15 0.14 0.16 0.16 0.16 0.16 0.16 0.17 0.18 0.18 0.18 0.18 0.17 0.17 0.16 0.15 0.16 0.18 0.19 0.20 0.32 0.40 0.50 0.56 0.57 0.62 0.66 0.67 0.70 0.74 0.80 0.82 0.84
0.41 0.40 0.41 0.41 0.42 0.43 0.44 0.45 0.45 0.46 0.50 0.54 0.58 0.60 0.59 0.60 0.60 0.60 0.61 0.61 0.62 0.62 0.59 0.56 0.53 0.49 0.39 0.30 0.25 0.10 0.22 0.43 0.57 0.59 0.53 0.49 0.47 0.38 0.31 0.30 0.29 0.29 0.23 0.22 0.20 0.21 0.21 0.23 0.26 0.26 0.24 0.21 0.21 0.18 0.18 0.16 0.15 0.17 0.16 0.16 0.16 0.17 0.18 0.18 0.17 0.17 0.18 0.16 0.17 0.15 0.15 0.16 0.17 0.15 0.16 0.47 0.52 0.55 0.54 0.54 0.64 0.63 0.62 0.68 0.73 0.81 0.86 0.85
0.41 0.40 0.40 0.41 0.41 0.41 0.43 0.43 0.44 0.44 0.45 0.50 0.54 0.56 0.57 0.58 0.60 0.60 0.60 0.61 0.62 0.64 0.61 0.59 0.58 0.50 0.36 0.30 0.14 0.10 0.29 0.45 0.58 0.55 0.49 0.46 0.39 0.29 0.25 0.27 0.28 0.25 0.22 0.20 0.21 0.27 0.28 0.30 0.31 0.29 0.24 0.20 0.20 0.18 0.18 0.18 0.19 0.19 0.18 0.18 0.17 0.18 0.18 0.18 0.18 0.17 0.17 0.16 0.17 0.16 0.15 0.16 0.16 0.15 0.14 0.34 0.52 0.53 0.45 0.50 0.57 0.63 0.65 0.69 0.76 0.80 0.86 0.88
0.40 0.40 0.40 0.40 0.41 0.41 0.41 0.42 0.43 0.43 0.43 0.45 0.49 0.53 0.55 0.56 0.58 0.59 0.58 0.59 0.60 0.63 0.60 0.56 0.60 0.54 0.42 0.29 0.17 0.16 0.39 0.47 0.56 0.52 0.46 0.41 0.32 0.27 0.27 0.28 0.26 0.23 0.20 0.17 0.26 0.29 0.31 0.34 0.32 0.26 0.18 0.23 0.17 0.18 0.18 0.21 0.19 0.19 0.18 0.14 0.16 0.17 0.16 0.18 0.17 0.17 0.16 0.15 0.17 0.17 0.15 0.14 0.14 0.14 0.19 0.39 0.50 0.51 0.48 0.48 0.54 0.60 0.68 0.72 0.77 0.81 0.84 0.88
0.40 0.40 0.39 0.40 0.41 0.41 0.42 0.42 0.43 0.43 0.43 0.44 0.46 0.48 0.51 0.53 0.54 0.55 0.56 0.58 0.61 0.63 0.64 0.63 0.59 0.52 0.38 0.17 0.18 0.25 0.30 0.43 0.49 0.47 0.45 0.38 0.29 0.26 0.26 0.27 0.26 0.24 0.23 0.25 0.28 0.30 0.32 0.34 0.31 0.24 0.26 0.22 0.19 0.15 0.20 0.21 0.19 0.19 0.18 0.16 0.15 0.15 0.14 0.16 0.17 0.16 0.16 0.16 0.17 0.16 0.10 0.11 0.14 0.15 0.30 0.46 0.47 0.51 0.48 0.47 0.53 0.59 0.65 0.70 0.75 0.79 0.86 0.92
0.40 0.39 0.39 0.39 0.41 0.42 0.43 0.43 0.43 0.44 0.43 0.43 0.44 0.45 0.48 0.51 0.53 0.53 0.55 0.56 0.61 0.63 0.65 0.65 0.57 0.48 0.35 0.19 0.20 0.28 0.36 0.44 0.46 0.41 0.39 0.37 0.25 0.20 0.22 0.23 0.24 0.25 0.30 0.30 0.31 0.33 0.31 0.32 0.30 0.27 0.27 0.21 0.18 0.22 0.19 0.19 0.20 0.15 0.17 0.17 0.13 0.13 0.13 0.16 0.19 0.18 0.15 0.17 0.17 0.16 0.10 0.11 0.14 0.15 0.37 0.47 0.46 0.40 0.38 0.44 0.50 0.56 0.62 0.68 0.74 0.80 0.83 0.91
0.39 0.39 0.39 0.38 0.40 0.42 0.43 0.44 0.44 0.43 0.44 0.43 0.44 0.44 0.46 0.48 0.52 0.54 0.57 0.58 0.61 0.64 0.61 0.65 0.59 0.42 0.27 0.22 0.32 0.40 0.49 0.49 0.38 0.37 0.40 0.32 0.22 0.18 0.19 0.21 0.22 0.27 0.32 0.33 0.31 0.34 0.33 0.32 0.29 0.22 0.19 0.22 0.22 0.18 0.16 0.16 0.17 0.17 0.14 0.12 0.15 0.12 0.15 0.19 0.21 0.21 0.17 0.19 0.18 0.15 0.11 0.12 0.14 0.16 0.40 0.52 0.51 0.46 0.37 0.43 0.50 0.55 0.61 0.68 0.75 0.79 0.84 0.90
0.39 0.39 0.39 0.38 0.38 0.40 0.42 0.44 0.44 0.44 0.44 0.46 0.47 0.49 0.52 0.54 0.57 0.60 0.64 0.66 0.69 0.67 0.67 0.53 0.49 0.41 0.28 0.17 0.24 0.49 0.44 0.37 0.37 0.44 0.44 0.35 0.25 0.21 0.22 0.24 0.28 0.30 0.31 0.30 0.33 0.33 0.32 0.30 0.23 0.21 0.19 0.19 0.17 0.16 0.15 0.14 0.15 0.17 0.14 0.14 0.14 0.16 0.16 0.17 0.22 0.23 0.23 0.21 0.20 0.16 0.12 0.12 0.12 0.17 0.40 0.53 0.51 0.49 0.44 0.44 0.50 0.57 0.64 0.70 0.76 0.81 0.85 0.89
0.38 0.39 0.39 0.39 0.38 0.39 0.41 0.44 0.45 0.47 0.48 0.51 0.54 0.57 0.60 0.63 0.64 0.65 0.71 0.73 0.73 0.74 0.62 0.42 0.50 0.48 0.18 0.36 0.43 0.26 0.33 0.40 0.50 0.46 0.40 0.37 0.28 0.28 0.26 0.26 0.27 0.28 0.31 0.33 0.33 0.31 0.28 0.22 0.23 0.20 0.21 0.17 0.18 0.16 0.12 0.12 0.12 0.13 0.18 0.14 0.17 0.15 0.17 0.17 0.24 0.24 0.23 0.22 0.18 0.16 0.12 0.12 0.16 0.21 0.44 0.57 0.58 0.52 0.49 0.49 0.53 0.62 0.68 0.75 0.79 0.82 0.84 0.87
0.39 0.38 0.38 0.38 0.38 0.38 0.40 0.42 0.45 0.48 0.50 0.54 0.57 0.59 0.61 0.64 0.67 0.71 0.72 0.79 0.81 0.71 0.61 0.62 0.52 0.33 0.18 0.29 0.25 0.29 0.39 0.39 0.43 0.46 0.42 0.37 0.32 0.28 0.28 0.25 0.27 0.27 0.27 0.26 0.27 0.23 0.23 0.18 0.21 0.15 0.16 0.16 0.15 0.13 0.11 0.09 0.11 0.12 0.14 0.14 0.16 0.19 0.22 0.20 0.20 0.23 0.23 0.21 0.18 0.17 0.14 0.13 0.18 0.23 0.41 0.53 0.61 0.57 0.53 0.54 0.59 0.66 0.71 0.76 0.80 0.81 0.83 0.84
0.39 0.38 0.38 0.38 0.38 0.38 0.39 0.41 0.43 0.47 0.52 0.56 0.59 0.65 0.66 0.68 0.72 0.71 0.59 0.66 0.53 0.42 0.27 0.31 0.28 0.14 0.12 0.18 0.29 0.35 0.38 0.43 0.46 0.43 0.38 0.33 0.32 0.30 0.29 0.28 0.26 0.24 0.21 0.20 0.20 0.20 0.21 0.18 0.19 0.15 0.12 0.13 0.12 0.12 0.12 0.14 0.16 0.16 0.17 0.17 0.19 0.18 0.21 0.21 0.22 0.24 0.24 0.17 0.17 0.17 0.15 0.15 0.18 0.24 0.43 0.55 0.64 0.59 0.58 0.64 0.65 0.70 0.74 0.78 0.81 0.81 0.81 0.82
0.38 0.38 0.38 0.38 0.38 0.38 0.38 0.40 0.43 0.45 0.51 0.51 0.50 0.53 0.59 0.44 0.44 0.42 0.57 0.56 0.40 0.33 0.32 0.33 0.34 0.30 0.28 0.29 0.32 0.41 0.46 0.46 0.39 0.39 0.40 0.38 0.31 0.28 0.27 0.26 0.22 0.22 0.19 0.16 0.19 0.19 0.22 0.15 0.13 0.12 0.12 0.13 0.14 0.14 0.16 0.18 0.19 0.20 0.20 0.20 0.20 0.21 0.23 0.23 0.23 0.25 0.28 0.18 0.18 0.18 0.18 0.18 0.20 0.26 0.39 0.51 0.63 0.61 0.60 0.61 0.65 0.69 0.73 0.77 0.78 0.78 0.79 0.83
0.36 0.37 0.38 0.38 0.37 0.37 0.38 0.39 0.40 0.43 0.49 0.49 0.48 0.40 0.33 0.35 0.27 0.23 0.33 0.35 0.37 0.39 0.35 0.35 0.34 0.31 0.27 0.32 0.38 0.39 0.33 0.34 0.39 0.35 0.35 0.41 0.33 0.28 0.24 0.24 0.20 0.17 0.17 0.18 0.18 0.26 0.21 0.14 0.13 0.14 0.15 0.16 0.17 0.19 0.20 0.20 0.22 0.23 0.22 0.21 0.20 0.23 0.21 0.23 0.23 0.27 0.31 0.21 0.19 0.20 0.18 0.19 0.25 0.33 0.44 0.55 0.60 0.55 0.56 0.60 0.64 0.68 0.73 0.77 0.77 0.75 0.77 0.83
0.36 0.37 0.37 0.37 0.37 0.37 0.37 0.38 0.39 0.42 0.46 0.47 0.44 0.39 0.42 0.44 0.51 0.51 0.42 0.23 0.31 0.37 0.38 0.34 0.39 0.33 0.36 0.36 0.41 0.43 0.40 0.34 0.33 0.36 0.37 0.35 0.30 0.22 0.24 0.21 0.19 0.16 0.19 0.19 0.19 0.17 0.16 0.13 0.15 0.18 0.20 0.21 0.21 0.22 0.22 0.21 0.23 0.26 0.22 0.21 0.21 0.22 0.24 0.25 0.26 0.29 0.30 0.26 0.21 0.21 0.18 0.20 0.26 0.34 0.44 0.51 0.56 0.63 0.68 0.67 0.69 0.70 0.72 0.76 0.76 0.75 0.76 0.79
0.38 0.37 0.37 0.37 0.36 0.37 0.36 0.38 0.39 0.39 0.37 0.36 0.37 0.44 0.45 0.54 0.58 0.61 0.51 0.38 0.26 0.33 0.30 0.30 0.28 0.29 0.29 0.37 0.41 0.44 0.33 0.31 0.28 0.34 0.34 0.31 0.28 0.24 0.24 0.20 0.18 0.19 0.19 0.19 0.15 0.15 0.13 0.15 0.18 0.21 0.23 0.22 0.22 0.24 0.24 0.24 0.26 0.23 0.21 0.20 0.20 0.23 0.21 0.20 0.26 0.28 0.28 0.27 0.24 0.23 0.21 0.22 0.26 0.34 0.40 0.48 0.53 0.58 0.71 0.74 0.77 0.83 0.80 0.76 0.74 0.73 0.72 0.73
0.38 0.39 0.37 0.36 0.36 0.35 0.36 0.37 0.38 0.35 0.32 0.33 0.40 0.44 0.58 0.62 0.60 0.60 0.46 0.30 0.22 0.24 0.27 0.28 0.27 0.27 0.25 0.25 0.36 0.36 0.31 0.34 0.34 0.30 0.39 0.31 0.25 0.26 0.23 0.21 0.19 0.19 0.18 0.19 0.18 0.17 0.16 0.20 0.25 0.24 0.24 0.22 0.21 0.23 0.23 0.22 0.20 0.23 0.23 0.21 0.22 0.23 0.23 0.23 0.24 0.27 0.28 0.29 0.30 0.25 0.22 0.22 0.24 0.26 0.33 0.43 0.54 0.56 0.63 0.73 0.79 0.84 0.86 0.86 0.84 0.79 0.78 0.74
0.36 0.38 0.38 0.37 0.35 0.36 0.32 0.35 0.29 0.34 0.34 0.33 0.39 0.55 0.62 0.62 0.65 0.62 0.41 0.30 0.27 0.22 0.35 0.31 0.33 0.27 0.26 0.40 0.43 0.33 0.35 0.37 0.37 0.41 0.40 0.34 0.28 0.26 0.22 0.25 0.21 0.18 0.19 0.20 0.20 0.20 0.20 0.23 0.26 0.23 0.23 0.23 0.21 0.20 0.21 0.21 0.19 0.21 0.23 0.23 0.23 0.25 0.25 0.26 0.28 0.25 0.22 0.21 0.27 0.25 0.18 0.19 0.24 0.25 0.28 0.36 0.43 0.47 0.58 0.61 0.68 0.77 0.80 0.80 0.74 0.73 0.76 0.79
0.34 0.36 0.37 0.38 0.37 0.33 0.31 0.22 0.33 0.29 0.27 0.27 0.41 0.56 0.55 0.59 0.68 0.61 0.39 0.24 0.15 0.19 0.30 0.19 0.35 0.24 0.36 0.26 0.36 0.36 0.39 0.29 0.38 0.41 0.39 0.37 0.37 0.29 0.26 0.22 0.22 0.17 0.19 0.20 0.19 0.22 0.22 0.26 0.25 0.23 0.24 0.24 0.22 0.22 0.24 0.24 0.20 0.19 0.21 0.26 0.25 0.25 0.27 0.26 0.25 0.24 0.19 0.17 0.25 0.29 0.18 0.18 0.26 0.26 0.28 0.31 0.35 0.40 0.53 0.56 0.63 0.72 0.75 0.76 0.73 0.73 0.73 0.74
0.35 0.35 0.36 0.37 0.38 0.37 0.18 0.15 0.26 0.25 0.19 0.34 0.54 0.56 0.54 0.58 0.68 0.52 0.23 0.19 0.15 0.34 0.29 0.39 0.32 0.35 0.33 0.32 0.33 0.36 0.20 0.23 0.37 0.42 0.37 0.40 0.33 0.35 0.25 0.21 0.21 0.22 0.23 0.23 0.20 0.20 0.24 0.24 0.26 0.27 0.26 0.24 0.23 0.22 0.27 0.26 0.22 0.19 0.25 0.27 0.26 0.25 0.24 0.25 0.24 0.24 0.22 0.27 0.28 0.28 0.24 0.20 0.21 0.25 0.30 0.32 0.32 0.35 0.41 0.48 0.57 0.65 0.71 0.73 0.74 0.73 0.74 0.74
0.35 0.35 0.36 0.36 0.36 0.37 0.26 0.26 0.22 0.18 0.17 0.38 0.56 0.54 0.57 0.62 0.61 0.48 0.23 0.11 0.10 0.39 0.35 0.39 0.36 0.45 0.38 0.35 0.35 0.28 0.26 0.32 0.27 0.34 0.38 0.41 0.38 0.34 0.28 0.23 0.22 0.21 0.23 0.22 0.15 0.22 0.25 0.23 0.25 0.25 0.26 0.24 0.22 0.25 0.29 0.29 0.23 0.23 0.27 0.28 0.27 0.26 0.26 0.26 0.26 0.25 0.26 0.23 0.20 0.24 0.28 0.20 0.20 0.26 0.31 0.32 0.29 0.31 0.34 0.40 0.48 0.58 0.66 0.71 0.72 0.71 0.73 0.76
0.33 0.35 0.36 0.36 0.35 0.33 0.36 0.29 0.26 0.18 0.33 0.44 0.47 0.51 0.56 0.62 0.48 0.26 0.18 0.09 0.26 0.32 0.49 0.40 0.54 0.40 0.36 0.39 0.32 0.32 0.31 0.34 0.26 0.33 0.38 0.41 0.40 0.35 0.26 0.27 0.26 0.27 0.27 0.24 0.19 0.22 0.26 0.26 0.27 0.27 0.26 0.23 0.26 0.29 0.30 0.29 0.24 0.27 0.30 0.30 0.30 0.30 0.28 0.27 0.25 0.25 0.25 0.21 0.18 0.22 0.27 0.19 0.20 0.26 0.27 0.31 0.29 0.29 0.31 0.35 0.41 0.50 0.58 0.66 0.68 0.68 0.70 0.75
0.33 0.34 0.36 0.36 0.32 0.29 0.27 0.34 0.24 0.23 0.28 0.39 0.44 0.53 0.58 0.52 0.37 0.17 0.14 0.09 0.32 0.23 0.36 0.40 0.41 0.38 0.36 0.32 0.31 0.33 0.30 0.34 0.34 0.35 0.36 0.34 0.37 0.36 0.33 0.35 0.29 0.27 0.26 0.28 0.24 0.24 0.26 0.30 0.32 0.28 0.26 0.28 0.29 0.31 0.32 0.30 0.29 0.32 0.29 0.26 0.26 0.26 0.26 0.27 0.26 0.25 0.23 0.18 0.19 0.24 0.27 0.23 0.18 0.25 0.27 0.26 0.28 0.32 0.32 0.34 0.37 0.40 0.50 0.60 0.66 0.68 0.68 0.69
0.34 0.34 0.34 0.37 0.25 0.27 0.24 0.16 0.18 0.25 0.30 0.38 0.43 0.53 0.45 0.34 0.21 0.15 0.09 0.09 0.27 0.30 0.37 0.37 0.34 0.39 0.34 0.31 0.29 0.34 0.32 0.34 0.33 0.35 0.32 0.35 0.34 0.34 0.33 0.30 0.32 0.27 0.26 0.26 0.24 0.25 0.26 0.28 0.28 0.31 0.34 0.32 0.32 0.30 0.32 0.32 0.31 0.28 0.25 0.23 0.23 0.22 0.25 0.23 0.23 0.24 0.17 0.16 0.22 0.26 0.26 0.26 0.17 0.23 0.29 0.34 0.37 0.37 0.36 0.33 0.35 0.37 0.40 0.49 0.59 0.66 0.68 0.69
0.33 0.34 0.34 0.33 0.32 0.34 0.17 0.13 0.22 0.38 0.35 0.35 0.39 0.41 0.31 0.17 0.23 0.12 0.10 0.29 0.13 0.27 0.29 0.31 0.36 0.34 0.33 0.34 0.31 0.33 0.31 0.32 0.34 0.33 0.31 0.31 0.30 0.29 0.29 0.26 0.28 0.22 0.21 0.22 0.21 0.26 0.23 0.24 0.29 0.30 0.36 0.31 0.29 0.26 0.28 0.28 0.29 0.26 0.24 0.24 0.19 0.18 0.19 0.16 0.19 0.16 0.15 0.15 0.21 0.27 0.27 0.22 0.21 0.24 0.32 0.37 0.39 0.41 0.42 0.40 0.38 0.37 0.38 0.41 0.51 0.63 0.69 0.71
0.33 0.33 0.34 0.33 0.33 0.27 0.24 0.20 0.21 0.23 0.32 0.32 0.34 0.32 0.20 0.12 0.09 0.14 0.14 0.17 0.17 0.29 0.30 0.34 0.31 0.31 0.32 0.31 0.30 0.32 0.36 0.30 0.34 0.33 0.34 0.33 0.30 0.30 0.32 0.30 0.31 0.27 0.20 0.24 0.22 0.22 0.22 0.27 0.27 0.29 0.30 0.32 0.30 0.24 0.24 0.23 0.25 0.24 0.22 0.21 0.19 0.16 0.15 0.14 0.17 0.18 0.18 0.21 0.26 0.25 0.29 0.21 0.25 0.28 0.37 0.36 0.41 0.45 0.46 0.47 0.46 0.45 0.44 0.43 0.47 0.59 0.70 0.74
0.33 0.35 0.31 0.32 0.31 0.28 0.25 0.26 0.24 0.24 0.26 0.29 0.30 0.26 0.19 0.11 0.09 0.22 0.13 0.14 0.15 0.29 0.30 0.29 0.29 0.30 0.31 0.29 0.30 0.32 0.28 0.32 0.33 0.33 0.32 0.30 0.30 0.28 0.29 0.32 0.32 0.30 0.27 0.27 0.22 0.22 0.19 0.19 0.24 0.27 0.25 0.32 0.29 0.27 0.27 0.25 0.24 0.24 0.25 0.22 0.20 0.19 0.16 0.13 0.15 0.13 0.15 0.18 0.23 0.28 0.21 0.19 0.19 0.24 0.39 0.44 0.49 0.51 0.54 0.53 0.54 0.53 0.53 0.51 0.55 0.62 0.73 0.80
0.32 0.34 0.36 0.33 0.32 0.30 0.29 0.29 0.27 0.25 0.23 0.23 0.26 0.22 0.13 0.11 0.14 0.13 0.14 0.17 0.21 0.23 0.24 0.28 0.27 0.28 0.29 0.32 0.34 0.33 0.32 0.29 0.33 0.31 0.30 0.29 0.28 0.28 0.28 0.29 0.32 0.32 0.31 0.24 0.27 0.25 0.22 0.22 0.28 0.31 0.32 0.33 0.29 0.31 0.30 0.27 0.25 0.26 0.26 0.26 0.21 0.20 0.22 0.16 0.18 0.17 0.17 0.18 0.19 0.22 0.20 0.24 0.24 0.39 0.44 0.50 0.52 0.53 0.55 0.54 0.54 0.53 0.56 0.57 0.58 0.61 0.69 0.76
0.27 0.30 0.37 0.31 0.36 0.40 0.39 0.32 0.28 0.25 0.18 0.18 0.19 0.17 0.13 0.13 0.12 0.15 0.12 0.24 0.22 0.18 0.18 0.21 0.25 0.25 0.27 0.30 0.35 0.33 0.37 0.31 0.33 0.32 0.30 0.30 0.31 0.29 0.32 0.32 0.31 0.32 0.30 0.25 0.28 0.22 0.24 0.21 0.29 0.31 0.33 0.31 0.31 0.31 0.30 0.29 0.21 0.25 0.25 0.21 0.21 0.27 0.23 0.20 0.21 0.22 0.22 0.19 0.17 0.24 0.22 0.25 0.33 0.34 0.39 0.46 0.47 0.49 0.54 0.57 0.57 0.56 0.59 0.61 0.61 0.66 0.71 0.76
0.20 0.29 0.25 0.39 0.43 0.49 0.48 0.39 0.29 0.22 0.19 0.15 0.14 0.12 0.16 0.16 0.16 0.20 0.22 0.20 0.21 0.20 0.17 0.12 0.18 0.22 0.23 0.25 0.29 0.33 0.36 0.35 0.34 0.32 0.28 0.33 0.29 0.32 0.32 0.33 0.36 0.35 0.34 0.32 0.29 0.32 0.24 0.24 0.29 0.28 0.27 0.31 0.33 0.32 0.31 0.30 0.29 0.26 0.21 0.23 0.29 0.31 0.28 0.21 0.16 0.19 0.17 0.14 0.16 0.20 0.18 0.21 0.21 0.18 0.35 0.39 0.42 0.46 0.52 0.56 0.58 0.61 0.63 0.61 0.64 0.67 0.70 0.73
0.22 0.25 0.28 0.35 0.46 0.55 0.54 0.44 0.28 0.21 0.16 0.14 0.11 0.12 0.20 0.15 0.19 0.17 0.25 0.24 0.22 0.22 0.17 0.14 0.16 0.24 0.22 0.23 0.26 0.29 0.34 0.34 0.34 0.33 0.29 0.33 0.28 0.37 0.33 0.33 0.37 0.36 0.36 0.37 0.30 0.31 0.31 0.23 0.27 0.29 0.28 0.29 0.32 0.31 0.29 0.30 0.31 0.26 0.24 0.32 0.22 0.20 0.18 0.22 0.20 0.15 0.15 0.14 0.15 0.18 0.20 0.22 0.23 0.23 0.29 0.31 0.37 0.42 0.47 0.52 0.55 0.56 0.60 0.63 0.67 0.71 0.77 0.79
0.27 0.23 0.17 0.33 0.52 0.59 0.58 0.45 0.26 0.16 0.13 0.10 0.11 0.10 0.16 0.17 0.21 0.20 0.22 0.22 0.21 0.18 0.13 0.14 0.15 0.24 0.24 0.23 0.25 0.30 0.31 0.29 0.36 0.34 0.30 0.33 0.28 0.37 0.34 0.34 0.34 0.37 0.37 0.37 0.32 0.32 0.33 0.24 0.25 0.31 0.29 0.30 0.30 0.29 0.24 0.26 0.29 0.30 0.30 0.27 0.29 0.23 0.22 0.20 0.20 0.21 0.19 0.16 0.16 0.16 0.19 0.17 0.25 0.26 0.30 0.31 0.37 0.44 0.47 0.47 0.49 0.51 0.54 0.57 0.59 0.61 0.66 0.70
0.21 0.16 0.20 0.42 0.52 0.57 0.54 0.39 0.23 0.16 0.12 0.08 0.11 0.11 0.21 0.15 0.18 0.22 0.23 0.22 0.19 0.17 0.16 0.15 0.21 0.22 0.25 0.25 0.24 0.26 0.30 0.31 0.33 0.34 0.33 0.35 0.32 0.44 0.36 0.38 0.33 0.35 0.36 0.37 0.33 0.35 0.29 0.31 0.23 0.28 0.31 0.29 0.24 0.26 0.25 0.26 0.26 0.27 0.26 0.25 0.25 0.25 0.28 0.25 0.24 0.21 0.18 0.17 0.16 0.15 0.14 0.17 0.23 0.31 0.32 0.33 0.35 0.42 0.46 0.47 0.50 0.52 0.54 0.57 0.57 0.58 0.62 0.67
0.29 0.19 0.26 0.48 0.51 0.50 0.45 0.32 0.19 0.13 0.11 0.17 0.16 0.13 0.18 0.16 0.18 0.20 0.21 0.24 0.20 0.23 0.18 0.18 0.19 0.21 0.26 0.26 0.25 0.27 0.27 0.29 0.31 0.29 0.33 0.34 0.33 0.30 0.39 0.38 0.39 0.35 0.38 0.36 0.33 0.34 0.29 0.29 0.24 0.26 0.26 0.26 0.26 0.29 0.28 0.27 0.27 0.27 0.27 0.26 0.26 0.23 0.21 0.18 0.17 0.26 0.22 0.17 0.16 0.14 0.13 0.18 0.26 0.34 0.34 0.34 0.37 0.38 0.47 0.48 0.49 0.54 0.58 0.60 0.62 0.66 0.67 0.67
0.22 0.16 0.22 0.50 0.51 0.47 0.35 0.19 0.21 0.23 0.15 0.12 0.11 0.14 0.15 0.20 0.16 0.16 0.18 0.22 0.21 0.19 0.24 0.19 0.19 0.21 0.25 0.27 0.27 0.26 0.25 0.26 0.27 0.26 0.28 0.28 0.34 0.34 0.37 0.42 0.39 0.39 0.36 0.34 0.33 0.36 0.34 0.33 0.29 0.25 0.25 0.26 0.28 0.29 0.31 0.31 0.30 0.29 0.28 0.26 0.29 0.27 0.24 0.20 0.16 0.19 0.22 0.21 0.22 0.20 0.16 0.17 0.31 0.36 0.37 0.37 0.38 0.39 0.46 0.50 0.49 0.52 0.56 0.60 0.63 0.65 0.68 0.70
0.22 0.21 0.37 0.48 0.55 0.47 0.32 0.20 0.23 0.19 0.16 0.19 0.22 0.21 0.20 0.23 0.20 0.23 0.19 0.21 0.18 0.22 0.20 0.19 0.19 0.19 0.24 0.27 0.28 0.27 0.27 0.25 0.28 0.26 0.28 0.29 0.33 0.38 0.41 0.41 0.40 0.36 0.36 0.33 0.34 0.35 0.36 0.30 0.27 0.26 0.28 0.28 0.30 0.31 0.31 0.30 0.28 0.26 0.27 0.29 0.27 0.25 0.25 0.24 0.22 0.24 0.21 0.23 0.19 0.19 0.15 0.18 0.30 0.39 0.39 0.40 0.44 0.47 0.51 0.52 0.51 0.53 0.57 0.58 0.58 0.62 0.66 0.68
0.27 0.28 0.30 0.47 0.59 0.58 0.30 0.20 0.19 0.19 0.21 0.25 0.21 0.24 0.28 0.27 0.24 0.22 0.21 0.23 0.21 0.21 0.19 0.20 0.20 0.21 0.22 0.30 0.30 0.27 0.30 0.22 0.29 0.29 0.28 0.31 0.30 0.39 0.39 0.40 0.40 0.36 0.35 0.32 0.29 0.37 0.27 0.31 0.27 0.24 0.23 0.24 0.25 0.27 0.27 0.29 0.29 0.26 0.25 0.27 0.28 0.28 0.28 0.28 0.28 0.30 0.22 0.23 0.21 0.18 0.14 0.17 0.28 0.38 0.42 0.45 0.47 0.48 0.49 0.54 0.57 0.54 0.58 0.60 0.61 0.63 0.64 0.64
0.29 0.37 0.34 0.38 0.54 0.53 0.32 0.33 0.29 0.24 0.22 0.25 0.23 0.23 0.28 0.26 0.28 0.27 0.25 0.24 0.26 0.24 0.22 0.21 0.23 0.25 0.23 0.30 0.30 0.32 0.32 0.29 0.27 0.32 0.32 0.32 0.31 0.38 0.38 0.39 0.41 0.38 0.39 0.40 0.37 0.38 0.30 0.30 0.27 0.22 0.20 0.18 0.17 0.18 0.19 0.22 0.25 0.28 0.28 0.28 0.28 0.26 0.25 0.24 0.21 0.23 0.20 0.23 0.23 0.19 0.17 0.21 0.29 0.36 0.39 0.43 0.45 0.47 0.51 0.55 0.58 0.60 0.59 0.60 0.62 0.63 0.65 0.65
0.21 0.18 0.32 0.34 0.40 0.48 0.45 0.44 0.36 0.31 0.26 0.28 0.26 0.27 0.28 0.25 0.28 0.30 0.30 0.29 0.30 0.27 0.25 0.25 0.26 0.27 0.25 0.26 0.26 0.28 0.28 0.32 0.29 0.29 0.30 0.30 0.32 0.35 0.37 0.37 0.38 0.39 0.42 0.39 0.38 0.36 0.30 0.31 0.29 0.28 0.25 0.23 0.25 0.27 0.30 0.30 0.29 0.27 0.29 0.28 0.28 0.29 0.28 0.26 0.25 0.22 0.19 0.22 0.21 0.21 0.20 0.21 0.24 0.29 0.32 0.38 0.42 0.43 0.46 0.52 0.53 0.54 0.57 0.60 0.61 0.60 0.61 0.60
0.30 0.23 0.27 0.24 0.37 0.42 0.42 0.44 0.39 0.37 0.32 0.37 0.30 0.32 0.27 0.27 0.29 0.28 0.33 0.27 0.31 0.29 0.28 0.25 0.25 0.22 0.23 0.24 0.24 0.26 0.29 0.29 0.31 0.31 0.30 0.30 0.34 0.35 0.38 0.37 0.35 0.36 0.38 0.35 0.37 0.34 0.30 0.27 0.29 0.28 0.28 0.28 0.29 0.28 0.29 0.29 0.26 0.27 0.26 0.25 0.26 0.25 0.26 0.24 0.21 0.21 0.25 0.21 0.18 0.23 0.24 0.20 0.23 0.27 0.31 0.34 0.40 0.45 0.50 0.53 0.55 0.55 0.56 0.56 0.57 0.56 0.58 0.59
0.21 0.28 0.36 0.39 0.31 0.33 0.38 0.38 0.44 0.38 0.38 0.38 0.34 0.37 0.32 0.29 0.28 0.25 0.30 0.31 0.33 0.33 0.27 0.27 0.25 0.26 0.26 0.25 0.25 0.22 0.26 0.27 0.29 0.28 0.32 0.32 0.32 0.34 0.33 0.36 0.35 0.37 0.35 0.33 0.36 0.32 0.29 0.27 0.31 0.31 0.31 0.31 0.31 0.30 0.30 0.29 0.29 0.29 0.28 0.27 0.26 0.26 0.24 0.21 0.22 0.23 0.23 0.20 0.17 0.22 0.24 0.22 0.25 0.28 0.31 0.34 0.38 0.44 0.50 0.54 0.56 0.57 0.58 0.57 0.54 0.53 0.54 0.55
0.30 0.32 0.33 0.41 0.32 0.41 0.44 0.46 0.47 0.42 0.38 0.38 0.34 0.35 0.32 0.31 0.30 0.31 0.30 0.29 0.29 0.30 0.30 0.24 0.24 0.26 0.27 0.29 0.27 0.24 0.26 0.22 0.24 0.30 0.30 0.30 0.31 0.31 0.29 0.31 0.34 0.36 0.35 0.34 0.34 0.35 0.31 0.29 0.31 0.32 0.30 0.31 0.32 0.32 0.33 0.30 0.30 0.30 0.30 0.29 0.29 0.28 0.26 0.25 0.23 0.24 0.22 0.21 0.21 0.22 0.24 0.24 0.28 0.30 0.34 0.37 0.42 0.45 0.51 0.56 0.58 0.56 0.54 0.54 0.54 0.53 0.53 0.55
0.23 0.25 0.24 0.35 0.34 0.37 0.43 0.46 0.46 0.44 0.39 0.42 0.35 0.36 0.35 0.33 0.31 0.32 0.33 0.31 0.27 0.28 0.32 0.27 0.28 0.28 0.28 0.28 0.28 0.25 0.27 0.28 0.28 0.27 0.31 0.31 0.31 0.32 0.31 0.32 0.31 0.34 0.35 0.32 0.33 0.34 0.30 0.27 0.31 0.30 0.27 0.27 0.30 0.31 0.31 0.30 0.29 0.27 0.28 0.28 0.27 0.26 0.25 0.25 0.23 0.23 0.24 0.22 0.23 0.24 0.23 0.24 0.33 0.37 0.38 0.42 0.45 0.48 0.50 0.52 0.54 0.54 0.54 0.53 0.54 0.53 0.54 0.55
0.35 0.36 0.35 0.26 0.23 0.28 0.35 0.37 0.38 0.38 0.38 0.40 0.37 0.38 0.38 0.36 0.34 0.35 0.33 0.35 0.32 0.30 0.30 0.27 0.30 0.30 0.30 0.29 0.28 0.27 0.30 0.30 0.30 0.31 0.32 0.32 0.29 0.34 0.30 0.32 0.34 0.30 0.32 0.31 0.32 0.31 0.31 0.29 0.33 0.30 0.25 0.25 0.29 0.28 0.28 0.29 0.27 0.25 0.24 0.24 0.24 0.23 0.21 0.22 0.21 0.24 0.21 0.19 0.21 0.22 0.21 0.22 0.31 0.38 0.40 0.43 0.44 0.45 0.46 0.50 0.52 0.53 0.54 0.52 0.51 0.52 0.54 0.56
0.37 0.38 0.37 0.28 0.17 0.24 0.24 0.29 0.33 0.36 0.32 0.38 0.41 0.41 0.39 0.38 0.38 0.37 0.31 0.35 0.35 0.34 0.35 0.34 0.32 0.30 0.30 0.30 0.30 0.31 0.32 0.33 0.34 0.34 0.35 0.35 0.36 0.37 0.36 0.36 0.35 0.32 0.30 0.30 0.33 0.29 0.30 0.29 0.27 0.26 0.23 0.23 0.28 0.28 0.27 0.26 0.25 0.21 0.21 0.24 0.25 0.24 0.24 0.24 0.24 0.25 0.24 0.24 0.20 0.18 0.20 0.28 0.33 0.37 0.36 0.39 0.42 0.44 0.46 0.49 0.52 0.54 0.55 0.54 0.53 0.53 0.54 0.55
Wind_Speed
18 18 18 17 17 17 17 17 17 17 17 17 18 18 18 18 18 19 19 19 19 19 19 19 18 18 18 18 18 18 18 19 20 19 19 19 19 19 19 18 18 20 20 19 19 19 19 19 19 18 17 17 17 17 17 17 16 15 14 14 15 14 14 14 15 14 14 14 13 12 10 10 11 10 10 9 9 10 10 10 11 11 12 12 11 10 11 11
18 18 18 17 17 17 17 17 17 17 17 17 17 17 18 18 18 18 18 18 18 18 18 18 18 18 18 18 18 17 18 18 19 19 19 18 18 18 19 18 17 19 19 19 20 19 19 19 19 18 17 17 17 17 17 18 17 16 15 15 16 15 15 15 15 15 15 15 14 14 12 11 12 12 12 12 12 12 10 11 11 10 10 11 11 11 12 12
18 18 18 17 17 17 17 17 17 17 17 17 17 17 17 17 17 17 18 18 18 18 18 18 17 17 17 17 17 16 17 17 17 18 17 17 17 17 17 17 17 18 18 19 19 19 19 20 19 18 17 17 17 17 17 17 17 17 16 16 16 16 16 16 16 17 17 16 15 15 13 12 14 13 12 13 13 13 13 14 13 12 12 12 12 13 12 13
18 18 18 17 17 17 17 17 17 17 17 17 17 17 17 17 17 17 17 17 17 17 17 17 17 17 17 17 16 16 16 16 16 16 15 15 15 16 16 17 17 17 17 17 18 19 19 19 18 18 17 17 17 17 17 18 18 17 16 16 16 15 15 17 18 18 18 17 17 16 14 15 16 13 13 13 13 14 16 16 15 14 14 13 14 14 14 14
17 18 17 17 17 17 17 17 17 17 17 17 17 17 17 17 17 17 17 17 17 17 17 17 17 16 16 16 16 15 15 14 14 15 15 14 14 14 15 16 16 17 17 17 17 17 18 18 17 17 17 18 17 17 18 19 18 17 17 17 17 15 15 17 17 17 16 16 17 17 15 16 15 13 14 14 14 16 17 17 16 15 16 15 14 14 14 14
17 17 17 18 17 17 17 17 17 17 17 17 17 17 17 17 17 17 17 17 17 16 16 16 16 16 16 15 15 15 14 13 14 15 14 14 14 14 14 15 16 16 16 16 17 17 17 17 17 17 17 18 18 18 19 19 18 18 18 17 17 17 16 16 16 16 16 15 17 17 16 17 15 15 15 15 16 17 17 17 16 15 15 14 14 14 14 14
17 17 17 18 18 18 17 17 17 17 17 17 17 17 17 17 17 17 17 17 17 16 16 16 16 16 15 15 14 14 14 15 15 14 14 13 13 14 14 14 15 16 16 16 16 16 16 16 16 17 17 18 18 19 19 18 18 18 17 17 18 18 17 18 17 17 17 17 18 18 17 18 17 16 15 15 16 17 16 16 15 15 14 14 14 14 14 14
17 17 17 17 17 17 17 17 17 17 17 17 17 17 17 17 17 17 17 17 17 16 16 16 15 15 15 14 14 14 15 16 15 14 13 13 13 13 13 14 14 15 15 16 16 15 15 16 17 17 17 18 18 18 18 17 17 18 18 17 17 18 18 19 18 18 18 19 19 18 18 20 20 17 16 16 16 15 15 14 15 14 13 14 14 14 14 14
16 17 17 17 17 17 17 17 17 17 17 17 17 17 17 17 17 17 17 17 17 16 16 15 15 15 14 14 14 14 15 15 14 13 13 12 13 13 14 14 14 14 14 15 15 15 15 16 17 17 17 17 17 17 17 16 17 18 18 18 17 18 19 18 18 18 18 18 18 17 18 20 20 17 16 17 15 14 14 13 14 13 13 14 14 14 14 14
16 16 16 16 17 17 17 17 17 17 17 17 17 17 17 17 17 17 17 17 16 16 16 15 15 15 14 14 13 13 15 13 12 12 12 12 12 13 14 14 14 14 14 14 15 15 15 16 16 16 16 16 16 17 16 16 16 17 17 18 18 18 18 17 17 18 16 17 18 17 18 18 17 16 16 16 15 14 13 13 14 14 14 14 14 14 14 14
16 16 16 16 16 16 16 17 17 16 16 16 16 16 16 16 17 17 16 16 16 16 16 15 15 14 14 14 13 14 14 12 12 12 12 12 12 12 13 14 14 13 13 14 15 15 15 15 15 14 15 15 15 16 16 16 16 16 16 17 18 17 17 17 16 17 16 17 18 18 18 16 15 15 16 16 15 15 14 13 14 14 14 14 14 13 13 13
16 15 15 15 15 16 16 16 16 16 16 16 16 16 16 16 16 16 16 16 16 15 15 15 15 14 14 14 15 15 14 12 12 12 12 12 11 12 12 13 13 13 13 13 14 15 15 14 13 13 14 15 15 15 16 16 16 16 15 16 17 14 15 16 15 16 16 16 18 17 17 17 16 16 16 15 14 14 13 13 13 14 14 14 13 12 12 11
15 15 15 15 15 15 15 15 16 16 16 15 16 16 16 16 16 16 16 16 16 15 15 15 15 15 14 14 15 15 14 14 13 12 12 12 11 11 11 12 12 12 13 13 13 14 14 14 13 13 14 14 14 15 14 14 15 15 14 14 15 14 15 16 14 15 16 17 17 16 18 18 17 17 16 15 15 14 13 13 13 13 13 13 13 12 11 11
15 15 14 14 14 14 14 15 15 15 15 15 15 15 15 15 15 15 16 16 16 16 15 15 14 14 14 14 14 14 14 14 13 13 12 12 10 9 9 10 11 12 13 13 12 12 13 13 12 13 14 14 15 14 13 13 13 14 14 13 14 13 15 16 15 14 15 16 16 16 18 18 17 18 17 16 16 14 13 13 14 13 13 13 12 12 11 10
15 15 14 14 14 14 14 14 14 14 15 14 14 14 14 14 15 15 15 15 15 15 15 14 14 14 13 14 14 13 13 12 12 12 12 11 10 9 9 10 11 12 13 13 12 11 11 11 12 12 13 14 13 13 13 13 12 12 12 13 12 12 14 15 14 13 14 15 14 15 17 17 17 17 16 15 15 14 13 13 13 13 13 13 12 12 11 10
15 15 14 14 14 14 14 14 14 14 14 14 14 14 14 14 14 14 14 14 14 14 14 14 14 13 12 12 12 11 11 12 12 11 11 11 11 9 9 9 10 12 12 12 12 12 11 10 11 12 12 12 11 11 12 11 11 11 11 12 12 11 12 12 12 13 13 13 14 15 15 14 14 14 14 14 13 12 11 12 13 13 13 12 12 11 10 9
15 15 15 15 14 14 14 14 14 14 14 14 14 14 14 14 13 13 13 13 12 13 13 13 13 13 13 12 11 11 11 11 11 10 11 11 11 10 9 9 10 11 12 12 11 11 11 10 10 11 11 10 10 10 11 11 12 12 10 11 12 11 10 11 11 11 11 12 14 13 13 13 12 11 11 12 12 11 11 12 12 12 12 12 11 11 11 11
16 15 15 15 15 14 14 14 14 14 14 14 14 14 14 13 12 12 12 11 10 10 11 12 12 12 12 12 12 11 10 10 10 10 11 11 11 10 9 9 10 10 10 10 11 11 11 10 10 10 10 10 10 9 11 13 12 12 11 10 10 10 10 11 11 10 10 11 12 11 12 13 12 11 11 12 12 11 11 12 12 12 12 11 11 11 11 11
16 16 15 15 15 15 14 14 14 14 14 14 13 13 12 12 11 11 11 11 10 10 11 12 12 12 12 13 13 12 11 11 11 11 12 11 11 11 10 9 10 10 10 10 11 10 10 10 9 10 11 11 11 11 12 13 12 11 11 10 10 10 10 11 11 11 9 8 10 11 12 12 11 11 10 10 10 11 11 11 12 12 12 12 12 11 11 11
17 16 16 16 15 15 15 14 14 14 14 13 13 12 11 11 11 11 12 13 13 13 14 14 14 15 15 14 13 12 11 11 11 11 12 12 11 11 10 10 9 9 10 10 11 10 9 9 10 12 12 13 13 12 11 11 10 10 10 10 10 10 10 10 10 10 8 7 9 11 11 11 11 11 10 9 9 10 11 11 11 11 11 12 12 12 11 11
17 17 17 16 16 16 15 15 14 14 13 13 12 12 11 11 11 12 13 14 15 16 16 16 16 17 17 15 14 12 11 10 11 11 12 13 12 11 11 10 9 9 10 10 10 9 8 9 11 12 12 12 12 12 11 9 8 9 9 10 10 9 10 10 9 8 8 8 8 9 10 10 11 11 10 9 10 10 10 11 11 11 12 12 12 12 11 10
18 18 17 17 16 16 15 15 15 14 13 12 12 12 11 11 12 13 13 13 15 16 17 17 17 18 18 17 16 14 12 11 11 11 12 13 12 12 11 10 10 10 10 9 9 8 9 10 12 12 11 10 10 10 10 9 8 8 9 9 10 10 9 9 9 8 7 7 8 8 8 9 10 10 10 10 10 9 10 11 11 12 12 12 12 12 11 10
19 18 18 18 17 17 16 16 15 14 13 12 12 12 12 12 13 13 12 13 14 14 16 17 17 18 18 18 18 16 14 13 12 13 13 13 13 13 11 10 11 10 9 9 10 9 9 11 11 10 9 9 9 10 10 9 9 9 9 9 10 10 8 8 9 8 8 7 7 8 8 9 9 9 10 10 10 9 10 11 12 13 13 12 12 12 11 10
20 19 19 18 18 17 17 16 14 13 13 13 13 13 12 13 13 12 12 12 13 12 14 15 15 16 18 18 17 17 15 14 13 13 14 14 13 12 12 11 10 10 10 11 11 11 11 11 9 8 9 10 10 10 10 10 10 10 10 10 11 11 10 10 9 8 9 8 7 7 7 9 9 9 10 10 10 10 10 11 13 14 13 12 12 12 12 11
20 20 19 19 18 18 18 16 13 12 13 13 13 13 13 13 13 12 11 12 12 12 12 13 13 14 17 17 16 16 15 15 15 14 14 15 13 12 12 12 11 11 12 11 10 11 12 11 9 8 9 10 10 11 11 11 10 10 11 12 12 11 11 11 9 7 8 8 8 7 7 9 9 9 10 10 9 10 11 12 13 14 13 13 13 13 12 11
21 21 20 19 19 19 17 15 13 13 13 13 13 13 13 13 12 11 11 11 12 12 11 11 12 13 15 16 16 15 14 15 16 15 14 15 15 13 12 11 11 12 12 11 11 12 12 10 9 9 10 10 10 11 12 11 10 10 11 11 11 10 10 11 10 8 9 10 9 8 8 10 10 10 10 9 9 9 10 12 14 14 15 14 14 14 14 13
22 21 21 20 19 18 16 15 15 15 14 14 14 13 14 13 12 10 10 10 11 11 10 10 12 12 13 16 17 15 13 14 15 15 16 16 15 14 13 12 11 12 12 11 11 12 12 9 8 8 9 10 10 11 12 11 9 10 11 10 9 10 11 11 10 9 11 11 10 9 9 10 10 11 10 9 8 9 10 12 14 15 16 15 15 15 15 15
22 22 21 21 20 18 17 16 16 16 15 15 15 14 13 13 11 10 8 8 9 10 10 11 11 11 12 15 17 16 13 12 13 15 16 16 16 14 14 14 13 12 12 11 13 13 12 11 10 9 8 10 11 12 12 11 10 12 12 10 9 9 10 10 9 10 11 11 11 11 9 10 11 12 10 8 8 9 11 13 14 15 16 17 16 16 17 16
23 23 22 22 21 19 18 17 17 16 16 15 15 15 14 12 10 9 8 8 9 8 9 10 11 11 11 13 17 17 14 11 12 14 15 16 17 14 13 14 13 12 12 12 14 14 13 12 12 10 10 12 12 11 12 12 10 11 10 8 8 7 8 8 9 11 11 11 13 13 11 11 12 12 11 9 9 10 11 12 13 15 17 17 17 18 18 17
24 23 23 22 21 20 18 18 18 18 16 16 16 16 14 12 10 8 9 10 9 9 9 9 10 11 11 12 14 16 15 12 11 12 13 15 16 14 13 14 12 13 13 12 14 15 14 13 12 11 11 12 12 10 10 11 10 9 8 8 8 8 9 9 10 10 10 12 14 14 12 12 12 12 12 11 11 12 12 12 12 13 16 18 18 18 18 18
24 24 23 22 21 20 19 19 19 17 16 16 16 16 14 13 11 10 10 10 10 10 9 9 10 10 10 12 14 14 15 14 12 12 13 14 15 15 14 14 13 12 13 14 14 15 13 13 13 13 12 11 10 9 10 10 10 9 9 8 9 10 10 10 11 10 10 13 15 14 13 13 13 14 14 14 14 14 14 14 14 13 15 17 18 19 19 18
25 25 24 23 22 21 21 21 19 17 17 16 15 15 14 14 14 13 12 10 9 10 10 10 10 10 11 12 14 14 15 16 15 14 14 14 15 16 16 16 15 13 13 15 15 14 14 15 14 13 13 12 11 10 10 10 10 10 9 9 9 10 10 11 11 11 12 13 13 13 13 14 15 16 16 16 16 16 16 17 17 16 17 17 18 19 19 18
26 25 24 23 22 22 22 22 22 20 19 17 15 14 13 14 15 16 15 12 11 11 11 11 11 12 12 12 12 14 14 16 17 16 15 14 15 16 15 16 16 14 14 15 14 14 14 14 14 13 13 13 12 12 12 12 12 12 11 11 10 9 9 11 12 11 12 13 12 12 13 14 15 16 16 17 17 17 17 17 17 17 17 16 17 18 18 18
26 25 23 22 22 23 23 23 22 21 19 17 16 15 14 15 15 15 15 15 15 13 12 12 13 12 13 12 12 12 13 15 17 16 15 15 15 17 16 16 16 15 14 13 14 15 14 13 14 14 13 13 13 13 13 12 12 13 13 12 12 11 10 11 11 11 11 12 12 12 12 13 14 14 15 16 16 16 16 15 14 14 14 13 14 15 16 16
25 24 22 21 21 22 23 23 22 21 20 18 16 16 17 17 16 14 15 15 15 15 14 14 13 12 13 14 13 12 12 14 15 15 16 16 16 17 16 17 17 15 14 14 14 13 13 14 15 15 14 13 13 14 13 12 11 13 13 12 12 13 11 10 10 10 10 10 10 12 13 13 13 14 14 14 13 13 14 13 11 10 11 10 11 13 14 15
23 22 20 19 19 20 21 23 23 22 21 19 18 19 20 18 16 15 15 15 14 15 14 13 12 12 13 14 15 13 13 13 14 14 16 16 17 17 16 16 17 16 15 14 13 12 12 14 14 14 14 13 13 14 14 13 13 12 12 13 13 13 10 9 10 9 8 9 11 12 12 13 12 12 13 12 11 11 12 11 10 9 9 9 9 11 12 13
22 20 18 18 19 20 21 22 23 23 21 19 20 22 20 19 18 16 15 14 14 13 12 12 13 13 12 13 15 16 15 14 14 14 16 16 17 18 17 17 17 18 17 15 14 14 12 13 14 13 13 13 13 13 12 13 13 12 12 13 12 11 10 10 9 9 8 10 12 12 11 12 11 11 12 11 10 10 11 10 10 9 9 9 10 11 12 14
21 19 18 18 19 20 20 21 23 23 21 20 22 22 20 19 19 17 16 15 14 14 13 13 14 13 12 12 14 15 15 15 14 14 15 15 16 16 17 17 16 17 17 15 15 15 13 12 13 13 13 13 12 11 11 12 12 12 12 12 11 10 11 11 10 10 9 10 11 11 11 12 12 11 11 10 10 10 10 10 9 9 9 9 11 12 13 15
20 18 17 18 19 18 19 21 22 22 21 22 22 21 20 20 19 19 18 17 17 16 15 16 15 13 13 13 13 14 14 15 15 14 14 15 15 15 15 17 16 15 16 16 15 15 13 13 13 13 13 13 11 12 13 13 12 11 11 11 11 11 11 11 11 10 10 10 10 10 10 11 12 12 10 11 11 11 10 10 10 10 10 10 11 12 13 13
18 17 17 18 17 16 17 19 20 21 21 22 22 21 20 20 19 20 20 19 19 18 17 17 15 15 14 13 13 14 13 14 15 15 15 15 15 15 14 15 16 14 14 14 15 15 14 13 13 13 13 12 12 13 14 14 13 12 12 12 12 11 11 11 10 9 9 9 10 10 10 12 12 11 11 11 12 11 11 10 10 10 10 11 11 12 12 12
17 15 16 17 16 15 15 17 19 20 21 21 21 20 19 19 18 19 20 20 20 20 19 18 17 17 16 14 14 13 13 14 14 14 16 15 16 16 15 15 17 16 14 14 15 16 15 15 14 12 11 11 12 13 14 14 13 13 12 13 12 12 12 11 10 11 10 9 10 10 10 12 12 11 11 12 12 11 10 10 10 10 10 10 10 10 11 11
15 14 15 16 15 15 14 16 18 19 19 20 20 20 19 19 18 19 19 19 20 20 19 19 19 18 18 17 16 14 13 13 13 13 14 14 15 16 16 16 17 17 16 16 17 17 16 15 14 12 12 12 13 13 12 12 11 11 11 12 11 11 11 11 12 13 11 10 11 10 10 12 12 11 12 12 11 10 9 9 10 10 11 10 10 10 10 11
14 14 15 14 13 14 14 16 17 17 19 20 19 19 18 18 17 18 18 17 19 19 18 19 19 18 18 17 16 15 14 14 14 14 13 13 14 15 15 14 15 15 15 16 17 16 15 14 13 12 12 12 12 12 12 11 10 10 11 12 12 12 12 12 13 12 12 12 11 10 11 13 13 12 11 11 10 9 9 10 10 10 10 10 10 10 10 10
14 13 13 11 11 13 14 15 16 17 18 18 17 17 17 16 15 16 16 16 17 17 17 18 18 18 18 17 16 16 15 15 14 14 14 13 13 13 12 11 13 14 14 15 16 16 15 14 13 12 11 12 12 13 13 13 12 11 12 13 12 12 12 12 13 12 12 14 12 11 12 14 13 12 11 10 9 9 10 10 10 10 10 10 10 10 11 11
13 12 11 10 8 10 12 15 16 16 16 16 15 15 15 15 15 14 14 15 15 16 17 17 18 17 17 16 15 16 16 16 15 14 14 13 13 13 11 11 12 13 14 14 15 15 14 14 14 13 13 14 14 15 16 15 14 13 13 13 12 12 12 13 13 12 13 15 13 13 14 15 14 12 11 11 10 10 11 11 11 11 11 11 11 11 11 11
11 10 10 9 6 7 10 12 13 15 16 15 15 14 15 16 15 13 13 13 14 14 15 16 16 17 16 15 15 15 15 16 15 14 14 14 15 14 13 12 12 12 13 12 12 14 14 14 14 14 15 16 17 16 16 15 14 15 15 14 13 13 12 12 12 13 14 14 15 16 15 14 15 14 13 13 12 11 12 12 12 12 12 12 12 12 12 12
9 8 8 7 7 6 7 8 9 12 13 14 14 13 14 15 14 13 12 12 13 13 14 14 14 15 16 16 16 15 15 16 15 15 15 15 16 16 15 14 11 11 13 13 12 14 14 14 15 13 12 15 15 14 14 13 13 14 14 13 13 13 12 12 12 14 14 13 16 18 16 15 16 16 15 15 14 13 13 13 13 14 13 13 13 13 13 13
9 7 6 4 6 6 6 6 7 8 9 10 12 12 11 12 12 12 13 13 12 12 13 13 13 14 16 16 16 15 15 15 14 15 16 16 16 16 16 16 13 12 13 13 13 13 14 14 15 14 13 13 13 13 13 13 13 14 14 14 14 14 13 14 15 16 15 15 17 18 16 16 18 17 17 17 17 16 14 14 15 15 14 14 13 13 14 15
10 8 5 2 3 6 5 3 5 6 6 8 10 10 10 10 11 11 12 12 12 11 11 12 12 13 14 15 15 15 15 15 14 15 16 16 16 15 15 15 15 14 13 14 14 14 14 14 15 15 14 13 13 13 13 13 13 15 16 16 15 15 14 14 15 16 16 16 18 16 15 16 18 18 18 18 18 17 15 14 15 15 15 15 14 15 16 16
11 9 6 2 2 4 4 2 2 4 5 7 8 8 8 8 9 10 10 10 11 11 11 11 12 12 12 12 13 15 16 16 15 15 16 16 15 15 15 16 16 15 15 15 15 15 15 14 15 14 13 13 14 13 13 12 13 14 15 15 15 15 14 14 15 16 17 17 17 17 16 16 18 18 18 17 16 15 14 15 15 15 16 16 16 16 17 17
12 10 7 3 1 3 4 3 2 3 3 5 6 7 7 7 8 9 9 8 9 11 11 11 12 13 12 11 12 14 16 17 17 17 17 16 16 16 16 16 16 16 15 15 16 16 16 16 16 14 14 16 15 14 14 14 13 14 15 15 15 15 16 16 16 17 18 18 18 18 18 19 20 19 17 16 15 14 15 15 16 16 16 17 17 17 17 17
13 11 8 4 0 2 4 4 3 3 3 3 5 6 6 7 7 7 8 7 7 8 9 11 12 12 12 12 12 14 16 17 18 18 18 18 18 18 18 18 18 17 17 17 16 17 16 17 18 17 17 18 17 16 16 15 15 17 19 18 18 18 17 17 17 18 19 19 19 20 21 21 21 20 18 17 16 15 15 16 16 16 17 17 17 17 17 17
Wind_Direction
287 286 285 284 283 281 278 276 274 272 271 270 270 269 269 268 268 267 266 265 265 265 265 265 266 266 266 267 268 269 270 268 266 264 260 257 254 251 248 249 245 236 236 240 240 239 240 241 239 238 236 236 238 238 239 240 240 242 242 243 244 242 240 239 238 236 232 239 250 254 255 248 253 256 238 241 249 245 249 254 255 260 259 250 252 244 230 238
286 284 284 284 283 281 279 277 274 272 271 270 270 270 269 269 268 267 266 266 266 266 266 265 266 266 267 268 269 270 270 267 266 262 258 256 254 251 247 245 243 235 235 238 238 237 237 238 237 235 234 235 239 238 239 240 239 240 240 243 243 240 241 240 239 240 237 241 250 255 255 250 252 252 239 241 251 247 249 257 254 252 251 244 245 238 234 240
285 283 283 283 283 282 280 278 275 273 272 270 270 270 269 268 268 267 267 267 266 266 265 265 265 266 267 268 268 270 269 266 264 259 256 257 253 249 245 241 239 234 235 238 236 235 234 235 233 232 233 235 238 238 238 240 239 240 240 243 243 239 242 244 243 245 245 246 251 253 254 255 255 251 242 238 242 246 246 249 248 244 240 238 242 239 239 243
285 283 282 282 282 282 281 279 277 275 273 271 270 269 269 269 268 267 267 266 266 266 265 265 265 265 267 268 268 268 268 265 259 254 255 257 252 246 242 238 236 235 237 238 236 235 233 232 232 232 233 236 239 239 238 239 239 240 238 239 241 238 242 244 242 246 249 247 246 249 254 258 257 251 244 237 242 254 251 248 247 240 234 236 242 242 244 247
286 284 282 281 280 281 281 279 278 276 274 272 270 270 269 269 268 267 267 266 265 265 264 264 264 265 266 267 267 266 264 260 254 253 256 255 251 245 240 237 235 235 237 237 235 234 233 232 233 233 233 236 238 239 239 238 237 240 240 239 240 238 243 245 241 242 245 245 244 246 251 253 255 254 249 242 244 253 254 253 250 241 236 239 243 244 246 249
287 285 282 280 280 280 280 280 278 276 275 273 271 271 270 269 268 268 266 265 265 264 264 263 263 264 265 265 263 261 258 254 254 256 255 254 251 244 239 237 234 235 235 236 236 234 232 231 232 233 234 236 236 237 239 239 238 241 244 244 243 241 242 246 242 240 242 245 244 243 248 251 255 260 255 247 248 254 257 254 248 242 242 244 246 242 244 246
289 286 283 281 280 280 280 280 279 277 275 274 273 272 271 270 269 268 266 265 264 263 263 263 263 263 264 263 259 258 256 254 255 255 254 253 250 244 238 237 234 234 234 234 234 232 230 229 231 231 232 235 235 236 239 241 240 240 245 247 247 243 241 246 247 245 245 246 246 247 251 252 253 257 256 254 256 259 259 253 244 243 246 248 245 240 242 244
291 288 285 282 281 280 280 279 279 277 276 274 273 272 271 270 268 268 266 265 264 263 262 261 262 261 262 260 256 259 256 253 254 253 253 251 248 242 237 238 235 234 233 231 230 229 229 227 229 229 231 235 233 236 239 241 243 241 242 245 246 245 244 249 252 252 251 249 249 251 251 250 250 251 253 257 259 260 256 250 244 242 245 246 242 238 240 243
295 291 287 284 282 280 279 279 279 278 276 274 273 272 271 270 268 267 266 265 264 262 261 260 260 260 258 256 254 257 253 249 252 251 250 249 247 242 238 239 236 234 232 230 228 226 228 228 229 229 231 233 232 236 237 239 244 240 239 243 246 249 250 251 253 254 254 251 247 246 248 250 251 250 253 256 254 254 250 245 241 239 241 241 238 237 237 241
299 294 289 286 284 281 279 278 279 278 277 275 274 273 272 270 268 267 265 264 263 261 260 258 258 258 256 255 251 251 249 248 251 249 247 248 247 242 239 238 234 232 230 229 226 224 226 226 228 229 229 231 232 235 236 236 241 239 239 243 244 249 253 250 250 253 254 252 245 241 246 251 252 249 252 254 246 244 242 238 239 237 237 236 235 237 238 242
303 298 293 289 286 283 280 278 278 278 277 276 274 273 272 270 268 267 265 263 262 261 259 257 257 255 254 252 245 244 246 246 248 248 247 247 246 241 238 236 232 230 227 225 223 222 224 224 227 230 230 233 234 235 237 237 241 241 240 246 249 252 254 248 248 252 252 251 245 240 247 252 253 250 251 247 240 241 237 234 235 233 234 234 234 236 238 241
306 302 297 292 289 286 282 279 277 277 277 277 275 274 272 270 268 266 264 262 261 260 258 255 254 252 252 251 244 242 245 244 244 247 247 246 245 240 236 235 231 227 222 219 220 222 224 225 228 234 234 235 236 236 238 240 242 244 242 246 253 258 256 250 248 249 246 250 246 241 251 255 252 252 251 241 236 240 236 231 230 230 234 233 233 234 234 237
307 305 302 297 292 289 285 281 278 277 277 277 276 274 272 271 269 267 264 261 260 258 256 253 251 251 250 248 244 242 244 243 242 246 247 244 244 240 235 232 229 224 218 213 218 223 226 228 231 236 237 233 235 236 239 244 243 245 246 246 253 258 257 253 251 250 248 251 246 243 254 255 252 254 249 236 231 233 232 230 229 231 233 231 229 228 229 234
309 306 304 300 296 292 288 284 280 278 276 276 276 274 273 272 270 268 265 262 259 256 253 250 249 247 244 245 247 245 243 241 240 242 242 240 239 237 232 228 225 221 214 212 219 226 228 231 233 238 238 231 234 238 242 248 244 244 247 248 252 251 253 256 254 251 251 252 244 242 253 254 254 255 244 234 230 227 228 230 229 229 228 225 224 223 229 236
309 307 304 302 299 295 291 287 282 280 278 276 275 274 273 271 269 267 265 262 258 254 250 247 245 243 244 247 247 243 238 237 239 239 236 234 231 229 225 220 219 216 214 216 221 228 229 232 235 237 238 235 235 238 241 246 245 244 244 248 252 245 251 260 255 244 246 253 245 241 252 255 253 250 237 229 228 227 227 226 224 223 220 218 220 222 229 236
308 307 304 302 300 297 294 290 285 281 278 275 274 273 272 271 269 267 265 262 257 251 246 242 240 238 241 243 241 237 235 235 238 238 233 229 226 223 216 214 217 217 218 222 224 231 233 234 236 235 235 235 234 233 238 244 247 246 241 241 247 245 249 256 253 247 244 249 247 241 247 253 253 247 232 220 221 226 224 219 218 219 218 216 219 223 227 233
309 307 305 303 301 298 295 292 287 282 278 275 273 273 272 271 269 267 265 262 256 249 242 239 237 237 238 238 236 234 234 237 238 235 231 227 224 218 213 216 222 220 222 227 229 233 235 234 235 236 236 236 236 234 237 243 244 245 243 241 243 243 246 251 257 260 254 248 244 240 239 242 249 244 227 216 218 224 222 217 217 217 217 217 218 223 226 230
308 306 305 303 301 299 297 293 289 283 278 275 274 273 271 268 268 266 263 259 253 247 243 238 234 235 237 234 233 232 234 240 238 231 226 224 221 216 215 221 224 225 228 231 231 232 234 236 236 237 241 243 240 233 232 236 234 235 238 238 243 247 247 252 257 263 263 251 239 232 230 235 246 242 224 221 222 222 222 219 218 218 215 216 220 223 225 229
308 305 304 303 301 300 297 293 290 285 280 275 274 273 269 266 267 264 260 255 248 244 245 238 229 230 234 234 235 237 240 242 240 231 221 219 218 216 219 223 225 227 228 230 234 234 233 237 239 238 241 241 235 227 226 228 227 227 229 228 236 245 249 253 255 257 256 242 232 229 225 227 235 233 223 225 223 216 218 217 216 216 214 216 222 225 227 230
307 305 302 301 300 299 297 293 290 285 280 275 272 271 268 267 267 263 260 256 251 250 251 243 233 235 238 238 238 240 242 241 238 231 221 217 214 214 221 226 228 229 226 226 233 238 234 235 239 236 235 233 229 225 222 224 227 227 226 229 236 239 249 255 254 257 247 230 234 230 222 225 228 229 226 222 217 210 210 213 213 211 211 218 223 225 227 231
305 303 301 300 298 297 295 292 289 285 279 273 270 268 266 265 266 265 263 260 255 252 251 246 238 238 239 237 236 237 239 239 235 229 222 218 213 215 224 224 222 229 230 226 230 239 235 233 237 232 226 222 221 221 219 222 228 229 228 233 241 238 245 251 247 257 248 228 238 229 217 229 232 232 230 217 212 211 208 211 212 208 210 219 223 222 224 229
304 302 300 298 296 295 294 290 288 283 276 271 267 266 265 264 268 268 264 262 258 250 248 246 242 241 239 236 236 236 234 234 236 232 222 217 219 222 225 220 216 225 230 224 228 241 239 236 236 228 217 212 216 218 216 219 223 227 228 229 238 239 243 249 246 256 250 226 235 228 214 230 237 236 236 228 224 222 215 215 216 212 215 221 221 220 222 227
302 301 299 296 294 293 291 289 285 278 272 268 265 263 264 267 273 272 263 263 262 251 246 244 241 240 237 234 233 229 227 228 231 231 221 216 222 224 221 221 219 222 226 219 219 228 233 233 230 220 208 209 222 223 214 218 225 228 226 225 236 240 236 239 245 254 252 236 229 223 220 234 240 236 236 236 233 226 219 218 219 220 224 228 225 223 224 226
300 299 298 295 293 290 289 287 281 273 268 266 263 263 265 272 277 272 263 263 262 253 247 243 239 237 233 230 226 222 224 226 227 229 222 216 220 223 222 221 219 222 225 219 214 221 226 226 219 211 211 214 222 225 216 218 232 237 228 223 234 239 233 233 243 249 249 246 233 224 234 242 240 232 230 235 234 227 222 218 220 225 228 230 227 226 227 228
297 297 296 295 292 289 287 281 272 268 269 264 261 262 268 275 276 269 265 267 263 256 251 242 238 236 229 224 221 219 223 228 229 228 223 217 216 221 226 223 221 225 224 217 215 223 229 227 219 218 225 224 221 225 224 219 228 240 233 225 228 230 230 236 244 244 241 247 243 232 233 241 244 236 231 238 237 231 229 223 221 224 226 225 225 227 229 230
296 294 294 293 291 290 285 273 264 268 269 261 257 263 270 275 274 269 267 269 263 256 250 241 237 234 228 223 219 218 224 232 231 226 222 220 217 219 225 227 226 226 222 219 223 226 229 230 225 226 230 226 222 229 231 220 218 233 233 224 225 226 228 235 241 239 235 238 242 234 222 230 243 241 240 247 242 237 237 231 225 223 224 224 225 228 229 230
294 292 292 289 289 288 279 269 267 267 262 257 259 265 271 272 269 268 271 269 260 250 243 241 236 232 231 224 216 215 227 233 228 224 221 219 218 219 223 227 227 227 223 222 229 229 225 230 235 236 234 225 222 231 230 215 212 229 231 220 222 227 229 233 236 237 237 237 244 246 226 223 234 237 244 250 240 243 244 237 232 227 224 224 226 229 230 231
292 290 289 286 285 282 273 269 269 263 255 255 260 265 269 269 264 264 266 261 255 247 240 239 233 231 234 225 216 218 228 228 223 226 223 217 218 221 224 226 221 223 226 221 227 232 228 230 235 235 236 229 226 229 220 210 221 234 229 223 227 229 229 232 233 238 243 240 245 253 240 230 236 240 248 247 238 247 249 242 240 235 229 227 228 231 234 235
291 289 286 284 281 276 269 266 264 259 254 254 258 261 264 262 259 260 255 249 252 248 240 237 232 232 233 224 221 224 227 227 224 224 221 217 220 223 224 226 219 222 230 225 226 232 232 233 234 230 233 230 228 230 219 215 230 233 225 231 239 239 238 238 235 237 244 242 242 250 246 237 241 244 246 245 244 249 250 246 243 240 236 231 231 233 236 239
290 287 284 282 277 271 266 262 260 258 255 254 256 257 256 253 253 254 249 246 249 248 242 237 233 232 229 224 227 228 226 227 224 218 220 222 224 227 226 225 222 225 236 238 231 234 239 241 238 233 234 228 224 231 229 225 230 227 229 241 245 249 248 245 243 237 241 247 244 246 243 236 241 244 240 242 246 249 250 251 250 247 242 236 234 235 236 238
290 287 283 278 272 267 263 260 258 253 250 252 255 252 248 248 247 241 241 246 248 247 245 238 235 234 231 226 228 229 226 227 225 218 223 226 225 228 228 227 228 232 241 245 240 242 246 244 240 239 237 229 224 231 237 237 234 230 235 237 237 248 249 246 250 241 238 246 245 244 242 235 238 241 240 245 250 249 249 251 254 254 250 243 236 234 235 236
290 285 281 275 268 264 259 255 254 250 249 252 252 247 242 243 243 237 241 252 249 243 241 238 237 238 238 232 228 228 226 226 226 223 225 228 226 227 228 226 227 232 240 241 240 243 242 239 242 244 239 229 226 228 234 243 243 236 237 233 233 245 245 244 249 245 242 246 244 245 245 242 243 244 244 249 253 254 253 254 256 257 254 248 239 234 233 234
290 285 279 272 265 260 256 253 252 249 249 249 246 244 238 238 241 239 240 245 244 243 242 240 243 244 241 236 231 228 226 226 226 226 228 229 227 229 231 229 226 228 235 235 234 236 239 242 243 240 238 233 226 224 230 239 239 233 232 230 230 236 239 243 247 249 249 248 247 249 249 248 250 250 250 252 256 258 260 259 258 257 254 248 241 236 233 233
290 285 278 270 263 258 255 252 248 245 244 242 241 240 235 236 242 241 240 242 243 248 248 246 249 248 241 235 232 229 227 229 226 224 229 229 227 230 232 232 229 227 230 232 232 229 231 240 237 230 233 234 229 227 227 232 235 236 235 230 230 231 231 238 242 243 246 247 248 249 248 246 247 252 256 257 259 261 261 258 256 256 253 245 241 238 235 235
292 285 276 269 263 258 253 248 244 240 238 236 237 236 233 236 240 239 240 242 244 247 249 249 248 248 245 237 234 232 228 230 228 225 229 228 227 229 228 229 228 226 226 229 234 231 227 235 236 233 234 232 232 233 230 230 238 242 238 233 236 234 231 236 239 236 237 243 247 245 247 249 248 254 261 262 264 265 262 256 250 250 247 241 239 237 234 236
294 286 276 267 263 259 253 246 240 235 232 232 235 236 235 237 237 235 238 240 242 245 248 251 245 243 248 240 235 238 234 231 231 229 232 232 231 230 227 227 226 224 223 225 231 232 228 235 239 237 236 234 233 235 234 234 236 239 237 235 238 234 227 230 239 244 240 241 248 248 252 259 258 257 263 266 267 267 264 257 247 240 234 230 233 233 232 235
295 287 275 269 269 262 252 243 235 230 230 231 234 237 238 238 234 233 237 239 240 240 241 246 243 239 243 239 236 237 233 232 235 232 233 236 234 230 228 229 225 223 224 227 233 233 226 233 238 232 231 237 238 236 240 240 234 232 235 235 235 233 231 230 237 252 249 244 252 255 255 257 255 256 261 262 259 261 262 258 251 244 233 226 227 229 233 235
293 284 273 275 276 263 248 239 230 227 229 232 236 239 239 237 234 233 236 238 239 241 240 241 241 238 238 237 238 236 228 229 235 234 233 236 235 231 228 228 227 226 228 228 233 236 228 231 238 232 228 237 242 235 238 245 239 230 231 234 231 231 235 234 234 241 241 243 255 260 257 250 246 252 256 251 246 249 256 257 253 250 244 238 234 234 238 241
291 281 274 281 280 261 243 233 227 226 230 233 235 238 238 238 238 237 237 238 238 240 240 239 238 237 237 236 237 237 230 227 230 232 234 234 233 231 228 227 228 230 231 226 227 233 229 227 234 234 230 236 240 233 232 240 241 236 237 240 238 235 234 232 233 235 233 237 248 257 262 255 248 247 246 245 244 243 248 251 250 248 246 243 240 240 243 245
290 279 274 283 278 254 236 229 227 228 231 234 235 236 238 238 239 238 237 237 238 238 237 237 236 236 238 239 237 236 234 230 227 228 233 234 234 233 230 229 228 228 228 225 225 229 229 225 229 236 236 233 233 233 231 231 232 235 238 240 239 239 235 232 236 239 234 236 243 250 258 259 253 247 241 243 245 241 242 246 246 245 241 239 239 239 239 241
293 280 276 284 272 245 234 232 231 231 232 234 235 235 237 237 237 239 238 237 237 238 236 234 234 234 235 238 239 237 236 235 232 230 232 234 234 231 232 235 233 228 226 226 226 227 228 226 226 232 234 229 231 236 236 232 228 229 233 233 233 234 231 230 240 245 241 242 243 242 253 259 255 249 247 249 248 245 243 244 244 241 236 236 237 235 234 236
296 282 282 286 264 239 238 236 234 234 232 233 234 234 236 236 235 238 238 237 237 238 237 235 234 235 233 235 237 237 236 234 233 233 231 231 231 232 238 244 238 228 224 227 229 228 227 226 224 226 227 227 234 241 240 234 229 229 234 234 233 235 232 230 238 242 242 246 247 245 254 260 256 253 254 254 250 244 238 236 236 236 236 237 236 235 237 238
299 286 286 288 258 237 239 237 235 235 233 234 234 233 234 235 236 237 236 237 238 236 237 236 234 234 235 235 235 236 237 232 230 233 233 231 232 234 240 242 233 224 222 226 228 226 226 226 220 222 229 232 238 245 245 241 236 237 242 239 237 240 239 234 238 240 238 240 243 248 256 259 259 260 258 253 248 244 239 237 234 234 238 240 238 238 239 239
300 289 287 288 258 238 236 234 234 236 235 236 234 233 234 233 235 237 234 236 238 234 234 235 234 235 236 235 233 235 237 232 229 233 233 231 232 233 237 235 225 221 224 226 225 223 226 225 217 217 228 235 240 246 248 246 242 238 241 242 240 239 240 240 242 244 242 239 236 241 253 257 259 262 261 254 250 251 251 248 243 241 241 240 238 238 238 239
306 294 287 288 266 238 234 233 232 230 231 233 230 231 235 234 235 235 232 234 237 233 232 234 235 236 234 233 233 235 236 232 229 231 233 235 236 234 238 235 225 224 228 229 228 225 225 226 221 219 225 230 235 242 242 240 240 240 241 244 242 237 237 240 241 241 242 240 237 241 252 259 260 262 263 258 252 252 253 251 248 247 242 239 238 237 239 243
317 305 291 283 268 238 232 235 232 227 226 227 226 229 233 234 235 234 229 231 235 233 232 234 235 232 230 230 231 233 236 234 230 229 231 237 236 233 238 237 233 237 237 233 233 229 226 230 230 226 229 233 236 240 240 237 237 239 241 244 244 240 238 239 241 241 240 241 245 248 251 256 260 262 264 262 257 254 253 249 247 247 245 243 243 243 245 248
331 316 297 272 253 238 233 235 233 228 225 222 220 227 232 230 231 233 230 229 232 231 229 232 232 228 227 229 227 230 237 237 234 232 234 238 236 236 240 237 239 253 246 236 238 233 227 232 233 231 237 239 237 239 241 238 234 232 233 239 244 244 242 241 243 243 241 244 253 255 251 252 258 261 263 262 261 260 261 258 255 255 253 251 250 248 249 251
349 335 314 269 233 225 224 230 228 222 219 216 214 220 227 225 224 228 230 229 230 231 227 229 232 229 228 227 223 228 237 237 236 236 236 238 238 239 242 238 240 254 248 239 240 234 228 234 236 235 241 244 245 247 245 241 238 237 238 243 247 248 247 244 245 247 245 249 255 254 250 252 257 260 261 260 259 258 260 262 261 260 259 257 255 252 250 250
2 356 342 317 202 201 202 223 227 212 210 216 215 218 225 225 224 227 231 230 231 233 227 225 231 233 231 228 223 227 233 232 234 237 235 237 239 238 239 239 241 249 246 240 241 236 233 239 240 236 239 246 251 252 247 241 242 246 251 252 250 249 249 247 247 251 253 254 255 251 249 254 256 256 258 259 257 254 256 262 263 263 262 259 256 256 254 253
9 7 357 4 170 190 190 195 209 199 208 215 211 214 222 224 225 227 229 228 229 233 230 223 229 232 229 228 225 226 229 227 229 235 234 234 238 237 236 238 241 247 247 241 242 242 238 239 241 240 242 249 253 253 249 243 239 242 249 253 249 246 251 254 253 255 255 256 256 253 252 255 257 256 257 259 256 254 258 264 265 263 261 258 256 257 257 257
14 12 8 12 201 206 202 206 192 171 191 211 210 214 218 221 227 225 223 225 224 227 232 231 232 234 231 230 229 230 234 231 229 235 236 235 238 238 238 239 241 246 250 246 245 247 243 239 241 243 242 245 250 251 249 245 243 244 247 252 253 250 252 256 256 256 255 254 254 253 251 253 256 258 259 260 260 259 263 266 265 263 261 258 256 256 256 257
16 15 16 21 37 211 208 213 210 177 172 196 207 216 219 224 235 230 224 233 236 231 236 236 234 234 235 237 239 242 245 241 238 240 241 239 241 242 242 244 244 243 246 247 247 249 247 241 241 242 241 243 246 248 247 247 249 251 250 252 256 256 256 259 262 262 260 256 253 252 251 252 255 256 256 258 260 261 262 263 263 262 260 259 257 257 256 256